Regional Weather Roundup
Issued by NWS

Home | Current Version | Previous Version | Text Only | Print | Product List | Glossary On
Versions: 1 2 3 4 5 6 7 8 9 10 11 12 13 14 15 16 17 18 19 20 21 22 23 24 25 26 27 28 29 30 31 32 33 34 35 36 37 38 39 40 41 42 43 44 45 46 47 48 49 50
000
ASUS46 KSEW 251910
RWRWA

WASHINGTON REGIONAL WEATHER ROUNDUP
NATIONAL WEATHER SERVICE SEATTLE WA
1200 PM PDT FRI JUL 25 2014

NOTE:"FAIR" INDICATES FEW OR NO CLOUDS BELOW 12,000 FEET WITH NO
SIGNIFICANT WEATHER AND/OR OBSTRUCTIONS TO VISIBILITY.

WAZ505-507>509-252000-
SEATTLE, TACOMA, EVERETT, AND VICINITY

CITY           SKY/WX    TMP DP  RH WIND       PRES   REMARKS
EVERETT        SUNNY     65  52  62 NW7       30.16F
BOEING FIELD   PTSUNNY   69  53  56 VRB7      30.14F
RENTON         PTSUNNY   68  54  60 NW10      30.14S
SEATAC AIRPORT MOSUNNY   67  54  63 W9        30.16S
JBLM-MCCHORD   MOSUNNY   65  52  60 VRB7      30.15S
PUYALLUP       CLOUDY    64  52  63 CALM      30.15F
JBLM-FT LEWIS  MOSUNNY   67  51  56 W8        30.14F
TACOMA NARROWS MOSUNNY   66  51  58 SW5       30.15S
$$

WAZ001-503-506-510-514-515-252000-
NORTH INTERIOR

CITY           SKY/WX    TMP DP  RH WIND       PRES   REMARKS
BELLINGHAM     SUNNY     65  50  58 S6        30.15S
FRIDAY HARBOR  SUNNY     64  53  67 SE7       30.17S
EASTSOUND      SUNNY     61  54  77 CALM      30.14S
PORT ANGELES   CLOUDY    62  52  69 N3        30.17S
NAS WHIDBEY    MOSUNNY   66  53  63 W7        30.17S
BURLINGTON     SUNNY     68  54  60 S5        30.16S
$$

WAZ020-022-039-040-504-511-512-252000-
SOUTHWEST INTERIOR

CITY           SKY/WX    TMP DP  RH WIND       PRES   REMARKS
SHELTON        PTSUNNY   67  49  52 NE3       30.13S
OLYMPIA        PTSUNNY   67  48  50 N6        30.15F
CHEHALIS       FAIR      66  55  68 E3        30.16S
KELSO          SUNNY     66  52  59 W3        30.17F
VANCOUVER      MOSUNNY   66  51  58 MISG      30.13S
SCAPPOOSE, OR  SUNNY     68  51  54 NE7       30.12F
PORTLAND, OR   MOSUNNY   66  53  63 NW7       30.13F
$$

WAZ021-516-517-252000-
WASHINGTON COAST

CITY           SKY/WX    TMP DP  RH WIND       PRES   REMARKS
FORKS          CLOUDY    62  55  77 W7        30.16S
HOQUIAM        CLOUDY    63  55  75 SW7       30.15S
ASTORIA, OR    PTSUNNY   64  54  69 NW8       30.14S
$$

WAZ019-023-024-040-518-519-252000-
CASCADE MOUNTAINS AND COLUMBIA GORGE

CITY           SKY/WX    TMP DP  RH WIND       PRES   REMARKS
STAMPEDE PASS  NOT AVBL
TROUTDALE, OR  MOSUNNY   66  53  63 VRB6      30.12S
THE DALLES, OR SUNNY     74  50  42 N6        30.06F
$$

WAZ026-027-041>044-520-521-252000-
EAST SLOPES

CITY           SKY/WX    TMP DP  RH WIND       PRES   REMARKS
OMAK           SUNNY     76  40  27 N8        30.06F
WENATCHEE      SUNNY     73  41  31 VRB3      30.07F
ELLENSBURG     SUNNY     75  45  34 CALM      30.08F
YAKIMA         SUNNY     72  45  37 VRB3      30.08F
$$

WAZ028-034-035-252000-
COLUMBIA BASIN

CITY           SKY/WX    TMP DP  RH WIND       PRES   REMARKS
EPHRATA        SUNNY     74  40  29 S7        30.07F
MOSES LAKE     SUNNY     74  41  30 S8        30.08F
PASCO          SUNNY     74  50  42 NW6       30.08F
HERMISTON, OR  SUNNY     73  48  41 W6        30.07F
$$

WAZ036>038-252000-
NORTHEAST WASHINGTON

CITY           SKY/WX    TMP DP  RH WIND       PRES   REMARKS
SPOKANE GEIGER MOSUNNY   67  40  37 S10G16    30.10F
SPOKANE FELTS  SUNNY     71  41  33 NW7       30.10S
FAIRCHILD AFB  SUNNY     67  42  39 SE6       30.11S
COEURDALENE,ID MOSUNNY   70  46  43 SW7       30.09S
DEER PARK      MOSUNNY   69  41  36 SW10      30.10F
$$

WAZ029>033-252000-
SOUTHEAST WASHINGTON

CITY           SKY/WX    TMP DP  RH WIND       PRES   REMARKS
PULLMAN        SUNNY     67  45  45 VRB5      30.14F
LEWISTON, ID   SUNNY     74  44  34 MISG      30.08F
WALLA WALLA    SUNNY     73  46  38 SW9       30.10F
PENDLETON, OR  SUNNY     70  43  37 VRB3      30.09F
$$


USA.gov is the U.S. government's official web portal to all federal, state and local government web resources and services.